METEOR 1-17

Satellite information

Favourite Embed

Satellite Type and Status

PAYLOADIN ORBIT

Key statistics

Satellite METEOR 1-17 at a glance.

Uptime

18640

Days in orbit

Revolutions

≈ 14.1

Per day

Orbit

LEO

Low Earth Orbit

Inclination

81.2

Latest

Satellite identification and parameters

Extended collection of information and parameters for METEOR 1-17.

Object identification

Identified? True

Debris? False

Object name: METEOR 1-17

International designator: 1974-025A

Object number (NORAD): 7274

Object ID (CCSDS): 7274

Country: COMMONWEALTH OF INDEPENDENT STATES (CIS)

Current information (Y/N): Y

RCS size: LARGE

Orbital parameters

Period: 102.213 minutes

Inclination: 81.2131 deg

SMA: 7241.529 km

Apoapsis: 875.671 km

Periapsis: 851.118 km

RAAN: 334.427 deg

Eccentricy: 0.0016953

Argument of periapsis: 46.9411 deg

Mean anomaly: 313.3175 deg

Mean motion: 14.08825892 rev/day

Mean motion (dot): 0.00000215 rev/day2

B* drag term: 0.00011696 1/REarth

Two-line elements (TLE)

Creation date: May 6, 2025, 3:54 a.m.

Reference frame: TEME

Reference center: EARTH

Epoch: May 5, 2025, 7:32 p.m. UTC

TLE line 0: 0 METEOR 1-17

TLE line 1: 1 07274U 74025A 25125.81455727 .00000215 00000-0 11696-3 0 9996

TLE line 2: 2 07274 81.2131 334.4270 0016953 46.9411 313.3175 14.08825892620941

Live tracking on map

Real-time ground track for satellite METEOR 1-17.

In-orbit conjunctions

A list of the most updated potential collisions computed for object METEOR 1-17.

Target Orbit TCA Probability of collision Miss distance Type
NOAA 16 DEB SSO 2025-04-19 11:03:26 0.0004959001 52.0 (m) DEBRIS
CZ-6A DEB LEO 2024-11-27 18:30:35 0.0001810665 272.0 (m) DEBRIS
DMSP 5D-2 F13 DEB SSO 2024-11-24 01:11:45 0.004355709 62.0 (m) DEBRIS
NOAA 16 DEB SSO 2024-10-15 14:13:24 0.0001255041 778.0 (m) DEBRIS
THOR ABLESTAR DEB LEO 2024-10-12 18:23:55 0.0004906194 159.0 (m) DEBRIS

Associated space launch

The Meteor-1 series was the first series of Soviet meteorological satellites.

METEOR 1-17 was lifted into orbit during the mission ‘Vostok 8A92M | Meteor-1 17 (22L)’, on board a Vostok 8A92M space rocket.

The launch took place on April 24, 1974, 11:50 a.m. from 43/4 (43R).

For more information about the launch, click the button.

Launch to space Vostok 8A92M | Meteor-1 17 (22L)
Vostok 8A92M | Meteor-1 17 (22L)

Agency: N/A

Status: Launch Successful

Launch date: April 24, 1974, 11:50 a.m. UTC

Rocket: Vostok 8A92M

Launch pad: 43/4 (43R)

Location: Plesetsk Cosmodrome, Russian Federation

...

Latest news about this satellite

There are no fresh news available about this satellite. Check back as we update our databases every day.


Newsletter sign-up

Weekly statistics, charts and insights to help you stay on top of the space industry.